628  
ASUS43 KGLD 240108  
RWRGLD  
 
GOODLAND FORECAST AREA HOURLY WEATHER ROUNDUP  
NATIONAL WEATHER SERVICE GOODLAND KS  
700 PM MDT SUN APR 23 2017  
   
..OFFICIAL OBSERVATIONS
 
 
 
CITY SKY/WX TMP DP RH WIND PRES REMARKS
 
GOODLAND KS CLOUDY 63 39 41 S21 29.76F  
HILL CITY KS CLOUDY 64 32 30 S16G30 29.86F  
IMPERIAL NEB CLOUDY 64 37 36 S20 29.74F  
MCCOOK NEB CLOUDY 65 35 33 S17G31 29.78F  
AKRON CO CLOUDY 62 37 39 S9 29.72F  
BURLINGTON CO NOT AVBL  
LIMON CO CLOUDY 62 36 37 SE14 29.76F  

 
   
..UNOFFICIAL OBSERVATIONS
 
 
 
CITY SKY/WX TMP DP RH WIND PRES REMARKS
 
LENORA KS N/A 63 32 31 MISG N/A  
NORTON KS CLEAR 61 25 25 SE15G23 29.82F  
SHARON SPRINGS N/A 62 42 48 SE20G31 N/A  
TRENTON NEB N/A 62 32 32 S14 N/A  
KIT CARSON CO N/A 67 39 35 MISG N/A  
YUMA CO FAIR 63 37 39 SE12 29.71F  

 
 
 
CLICK HERE TO GO TO PREVIOUS BULLETINS.

The Nexlab KS Page
The Nexlab CO Page
The Nexlab NE Page Main Text Page